Amateur Radio Satellites - All Passes

Search period start: 18 June 2013 19:16
Search period end: 19 June 2013 19:16
Location: Kitt Peak, 31.9633°N, 111.6000°W

Satellite Date Start Highest point End Downlink Frequencies (MHz)
Time Altitude Azimuth
HO-68 18 Jun 19:35:22 19:39:22 16° 60° (ENE) 19:43:22 435.675 MHz FM
SO-67 18 Jun 19:57:04 20:00:20 34° 262° (W) 20:03:37 435.3500 MHz FM
AO-40 18 Jun 19:59:55 00:34:07 56° 178° (S) 06:58:26 Beacon 2401.320
JAS-2 18 Jun 20:03:22 20:08:49 23° 67° (ENE) 20:13:55 435.800 - 435.900 CW/SSB, 435.910 FM
PANSAT 18 Jun 20:20:11 20:23:03 20° 160° (SSE) 20:25:56 not established
Oscar 11 18 Jun 20:23:10 20:23:59 11° 66° (ENE) 20:24:48 145.825 FM, Beacon 2401.500 USB
JAS-1B 18 Jun 20:30:47 20:36:21 23° 262° (W) 20:41:21 435.800 - 435.900 CW/SSB
RS-15 18 Jun 20:33:20 20:44:14 61° 58° (ENE) 20:54:56 29.354 - 29.394 USB, Beacon 29.352 USB
MaSat-1 18 Jun 20:45:47 20:48:20 13° 298° (WNW) 20:50:39 437.345 MHz
Saudisat 1A 18 Jun 21:06:28 21:10:30 32° 112° (ESE) 21:14:35 436.775 MHz
HO-68 18 Jun 21:19:02 21:26:10 81° 255° (WSW) 21:33:21 435.675 MHz FM
ISS 18 Jun 21:36:47 21:37:42 11° 30° (NNE) 21:38:38 145.800 FM
JAS-2 18 Jun 21:45:54 21:53:25 60° 259° (WSW) 22:00:15 435.800 - 435.900 CW/SSB, 435.910 FM
Oscar 11 18 Jun 21:55:26 21:59:41 54° 260° (W) 22:03:58 145.825 FM, Beacon 2401.500 USB
Oscar 10/S400 18 Jun 21:55:58 05:39:08 47° 91° (E) 08:12:38 145.825 - 145.975 CW/USB, Beacon 145.810 USB
PANSAT 18 Jun 21:59:21 22:03:03 43° 172° (S) 22:06:44 not established
OPAL 18 Jun 22:14:27 22:19:28 67° 73° (ENE) 22:24:25 ?
Saudisat 1A 18 Jun 22:46:41 22:50:13 22° 307° (NW) 22:53:46 436.775 MHz
RS-15 18 Jun 22:46:51 22:55:44 30° 255° (WSW) 23:04:38 29.354 - 29.394 USB, Beacon 29.352 USB
ISS 18 Jun 23:11:28 23:14:45 80° 225° (SW) 23:18:02 145.800 FM
PCSat 18 Jun 23:26:07 23:30:13 22° 106° (ESE) 23:34:20 145.825 MHz
PANSAT 18 Jun 23:39:27 23:43:12 48° 184° (S) 23:46:57 not established
SO-50 18 Jun 23:44:19 23:47:26 17° 109° (ESE) 23:50:32 436.795 FM
OPAL 18 Jun 23:57:59 23:58:40 10° 265° (W) 23:59:21 ?
Sapphire 18 Jun 23:59:28 00:04:34 46° 110° (ESE) 00:09:43 437.095 MHz 1200 baud AX-25 AFSK
KITSAT 1 19 Jun 00:37:41 00:41:28 14° 41° (NE) 00:45:14 435.175 FM
Oscar 16 19 Jun 01:01:08 01:03:59 15° 94° (E) 01:06:49 437.025 USB, Beacon 2401.1428
PCSat 19 Jun 01:08:20 01:13:20 38° 300° (WNW) 01:18:23 145.825 MHz
Uribyol 2 19 Jun 01:13:58 01:16:41 14° 93° (E) 01:19:23 436.500 FM
PANSAT 19 Jun 01:19:58 01:23:15 26° 197° (SSW) 01:26:32 not established
SO-50 19 Jun 01:23:13 01:27:44 41° 302° (WNW) 01:32:12 436.795 FM
Sapphire 19 Jun 01:44:14 01:48:11 20° 305° (NW) 01:52:10 437.095 MHz 1200 baud AX-25 AFSK
Oscar 19 19 Jun 01:53:33 01:58:29 47° 100° (E) 02:03:22 437.125 CW, 437.150 USB
ITAMSAT 1 19 Jun 02:17:34 02:22:46 67° 102° (ESE) 02:27:56 435.822 SSB
AO-27 19 Jun 02:18:34 02:23:48 71° 102° (ESE) 02:28:59 436.795 MHz FM
KITSAT 1 19 Jun 02:30:18 02:38:25 68° 62° (ENE) 02:46:28 435.175 FM
Oscar 16 19 Jun 02:38:38 02:43:33 48° 287° (WNW) 02:48:27 437.025 USB, Beacon 2401.1428
Uribyol 2 19 Jun 02:51:21 02:56:24 52° 287° (WNW) 03:01:25 436.500 FM
AO-Echo 19 Jun 02:58:30 03:03:40 63° 101° (E) 03:08:54 ?
UOSAT-12 19 Jun 03:05:42 03:09:57 43° 114° (ESE) 03:14:14 437.025 FM, 437.400 FM
TMSAT-1 19 Jun 03:13:27 03:16:53 17° 94° (E) 03:20:18 436.925 FM
Uosat F 19 Jun 03:18:20 03:22:51 32° 98° (E) 03:27:20 435.120 FM
Oscar 19 19 Jun 03:34:18 03:37:24 16° 293° (WNW) 03:40:30 437.125 CW, 437.150 USB
AO-7 19 Jun 03:36:47 03:37:46 10° 91° (E) 03:38:45 29.400 - 29.500 MHz
Gurwin Techsat 1B 19 Jun 03:52:09 03:57:28 70° 102° (ESE) 04:02:44 435.225 FM
ITAMSAT 1 19 Jun 03:59:40 04:01:38 12° 296° (WNW) 04:03:37 435.822 SSB
AO-27 19 Jun 04:00:59 04:02:40 12° 296° (WNW) 04:04:20 436.795 MHz FM
KITSAT 1 19 Jun 04:27:25 04:33:02 21° 257° (WSW) 04:38:38 435.175 FM
AO-Echo 19 Jun 04:39:35 04:41:53 13° 294° (WNW) 04:44:13 ?
STRAND 1 19 Jun 04:44:32 04:45:16 10° 63° (ENE) 04:45:59 ?
UOSAT-12 19 Jun 04:47:24 04:50:18 17° 309° (NW) 04:53:13 437.025 FM, 437.400 FM
TMSAT-1 19 Jun 04:51:56 04:56:58 45° 287° (WNW) 05:01:58 436.925 FM
Uosat F 19 Jun 04:57:32 05:01:25 23° 291° (WNW) 05:05:19 435.120 FM
AO-7 19 Jun 05:23:07 05:31:31 77° 106° (ESE) 05:39:50 29.400 - 29.500 MHz
MaSat-1 19 Jun 05:30:09 05:32:38 76° 249° (WSW) 05:35:16 437.345 MHz
Gurwin Techsat 1B 19 Jun 05:34:54 05:36:47 12° 296° (WNW) 05:38:39 435.225 FM
STRAND 1 19 Jun 06:18:39 06:23:45 76° 258° (WSW) 06:28:54 ?
JAS-1B 19 Jun 06:29:38 06:32:41 14° 96° (E) 06:35:55 435.800 - 435.900 CW/SSB
Hamsat 19 Jun 06:32:40 06:35:51 20° 95° (E) 06:38:59 145.90 MHz
Saudisat 1A 19 Jun 07:17:26 07:21:57 82° 62° (ENE) 07:26:22 436.775 MHz
AO-7 19 Jun 07:17:45 07:23:23 21° 302° (WNW) 07:29:01 29.400 - 29.500 MHz
SO-67 19 Jun 07:28:43 07:31:41 24° 97° (E) 07:34:37 435.3500 MHz FM
Hamsat 19 Jun 08:08:10 08:11:52 27° 288° (WNW) 08:15:31 145.90 MHz
JAS-1B 19 Jun 08:17:32 08:23:28 67° 285° (WNW) 08:30:21 435.800 - 435.900 CW/SSB
HO-68 19 Jun 08:53:08 08:58:52 25° 97° (E) 09:04:35 435.675 MHz FM
Sapphire 19 Jun 08:53:52 08:56:49 15° 52° (NE) 08:59:46 437.095 MHz 1200 baud AX-25 AFSK
SO-67 19 Jun 09:02:53 09:04:52 14° 289° (WNW) 09:06:52 435.3500 MHz FM
JAS-2 19 Jun 09:02:53 09:06:38 20° 95° (E) 09:10:18 435.800 - 435.900 CW/SSB, 435.910 FM
Oscar 11 19 Jun 09:48:25 09:52:31 38° 99° (E) 09:56:34 145.825 FM, Beacon 2401.500 USB
SO-50 19 Jun 09:59:52 10:04:13 45° 59° (ENE) 10:08:30 436.795 FM
PCSat 19 Jun 10:00:46 10:06:08 61° 63° (ENE) 10:11:28 145.825 MHz
OPAL 19 Jun 10:29:50 10:33:59 26° 99° (E) 10:38:08 ?
Sapphire 19 Jun 10:35:20 10:40:44 68° 248° (WSW) 10:46:05 437.095 MHz 1200 baud AX-25 AFSK
HO-68 19 Jun 10:39:50 10:46:42 50° 291° (WNW) 10:53:32 435.675 MHz FM
JAS-2 19 Jun 10:47:05 10:51:51 35° 289° (WNW) 10:56:29 435.800 - 435.900 CW/SSB, 435.910 FM
RS-15 19 Jun 10:48:40 11:00:35 66° 112° (ESE) 11:12:01 29.354 - 29.394 USB, Beacon 29.352 USB
Oscar 11 19 Jun 11:25:58 11:28:22 15° 292° (WNW) 11:30:45 145.825 FM, Beacon 2401.500 USB
UOSAT-12 19 Jun 11:41:54 11:43:39 12° 48° (NE) 11:45:24 437.025 FM, 437.400 FM
SO-50 19 Jun 11:42:13 11:44:22 13° 252° (WSW) 11:46:31 436.795 FM
PCSat 19 Jun 11:46:25 11:48:58 13° 257° (WSW) 11:51:30 145.825 MHz
OPAL 19 Jun 12:08:36 12:12:45 28° 292° (WNW) 12:16:56 ?
Oscar 16 19 Jun 12:14:10 12:16:51 14° 66° (ENE) 12:19:32 437.025 USB, Beacon 2401.1428
Uribyol 2 19 Jun 12:27:49 12:30:29 14° 65° (ENE) 12:33:09 436.500 FM
RS-15 19 Jun 13:03:11 13:13:39 34° 312° (NW) 13:23:48 29.354 - 29.394 USB, Beacon 29.352 USB
Oscar 19 19 Jun 13:05:45 13:10:35 42° 72° (ENE) 13:15:25 437.125 CW, 437.150 USB
UOSAT-12 19 Jun 13:19:41 13:24:16 69° 244° (WSW) 13:28:50 437.025 FM, 437.400 FM
ITAMSAT 1 19 Jun 13:30:46 13:35:53 61° 74° (ENE) 13:41:02 435.822 SSB
AO-27 19 Jun 13:31:55 13:37:03 65° 75° (ENE) 13:42:13 436.795 MHz FM
Oscar 16 19 Jun 13:50:38 13:55:42 56° 259° (W) 14:00:47 437.025 USB, Beacon 2401.1428
Uribyol 2 19 Jun 14:04:18 14:09:25 57° 259° (W) 14:14:34 436.500 FM
AO-Echo 19 Jun 14:07:16 14:11:44 45° 73° (ENE) 14:16:16 ?
ISS 19 Jun 14:13:43 14:16:41 32° 130° (SE) 14:19:40 145.800 FM
Uosat F 19 Jun 14:27:20 14:31:30 27° 70° (ENE) 14:35:41 435.120 FM
TMSAT-1 19 Jun 14:30:00 14:33:24 18° 67° (ENE) 14:36:49 436.925 FM
AO-7 19 Jun 14:31:06 14:33:21 11° 52° (NE) 14:35:36 29.400 - 29.500 MHz
Oscar 19 19 Jun 14:46:36 14:50:03 18° 265° (W) 14:53:30 437.125 CW, 437.150 USB
KITSAT 1 19 Jun 15:02:41 15:06:15 14° 101° (E) 15:09:50 435.175 FM
Gurwin Techsat 1B 19 Jun 15:08:24 15:13:39 68° 75° (ENE) 15:18:56 435.225 FM
ITAMSAT 1 19 Jun 15:13:46 15:15:43 12° 267° (W) 15:17:39 435.822 SSB
AO-27 19 Jun 15:15:24 15:16:55 11° 268° (W) 15:18:27 436.795 MHz FM
AO-Echo 19 Jun 15:48:29 15:50:44 13° 267° (W) 15:53:01 ?
ISS 19 Jun 15:51:01 15:53:25 19° 324° (NW) 15:55:49 145.800 FM
Uosat F 19 Jun 16:06:00 16:10:11 27° 263° (W) 16:14:23 435.120 FM
TMSAT-1 19 Jun 16:07:51 16:12:55 47° 260° (W) 16:18:01 436.925 FM
AO-7 19 Jun 16:16:22 16:24:34 68° 70° (ENE) 16:32:50 29.400 - 29.500 MHz
KITSAT 1 19 Jun 16:52:28 17:00:32 90° 294° (WNW) 17:08:40 435.175 FM
Gurwin Techsat 1B 19 Jun 16:52:37 16:54:00 11° 268° (W) 16:55:23 435.225 FM
RS-15 19 Jun 17:47:38 17:51:45 12° 24° (NNE) 17:55:49 29.354 - 29.394 USB, Beacon 29.352 USB
AO-7 19 Jun 18:11:53 18:17:47 21° 264° (W) 18:23:44 29.400 - 29.500 MHz
MaSat-1 19 Jun 18:13:56 18:19:07 30° 109° (ESE) 18:23:24 437.345 MHz
STRAND 1 19 Jun 18:34:26 18:39:31 56° 101° (E) 18:44:32 ?
KITSAT 1 19 Jun 18:51:43 18:56:58 18° 314° (NW) 19:02:16 435.175 FM
Hamsat 19 Jun 18:56:30 19:00:48 70° 259° (W) 19:05:10 145.90 MHz
JAS-1B 19 Jun 18:57:29 19:04:45 68° 75° (ENE) 19:10:53 435.800 - 435.900 CW/SSB

Developed and maintained by Chris Peat, Heavens-Above GmbH. Please read the updated FAQ before sending e-mail. Imprint. DLR
